Location: Anjeux
(47.8815°N, 6.2076°E)
Time: 11:26:09
(UTC+00:00)

AO-27 - Pass Details

Date: 17 December 2021
Orbit: 784 x 798 km, 98.9° (Epoch: 24 January)

Event Time Altitude Azimuth Distance (km) Brightness Sun altitude
Rises 19:52:13 0° 226° (SW) 3,294 11.3 -40.5°
Reaches altitude 10° 19:57:37 10° 272° (W) 2,374 10.8 -41.4°
Maximum altitude 19:57:52 10° 275° (W) 2,372 10.8 -41.4°
Drops below altitude 10° 19:58:08 10° 278° (W) 2,375 10.8 -41.4°
Sets 20:03:34 0° 325° (NW) 3,313 11.4 -42.3°
